Regional Weather Roundup
Issued by NWS

Home | Current Version | Previous Version | Text Only | Print | Product List | Glossary Off
Versions: 1 2 3 4 5 6 7 8 9 10 11 12 13 14 15 16 17 18 19 20 21 22 23 24 25 26 27 28 29 30 31 32 33 34 35 36 37 38 39 40 41 42 43 44 45 46 47 48 49 50

000
ASUS43 KMPX 060010
RWRMN
WEATHER ROUNDUP FOR MINNESOTA
NATIONAL WEATHER SERVICE TWIN CITIES/CHANHASSEN MN
600 PM CST FRI FEB 05 2016


NOTE: "FAIR" INDICATES FEW OR NO CLOUDS BELOW 12,000 FEET WITH NO
SIGNIFICANT WEATHER AND/OR OBSTRUCTIONS TO VISIBILITY. N/A MEANS
CURRENT SKY AND/OR WEATHER CONDITIONS ARE NOT AVAILABLE.

MNZ060>063-068>070-060100-
   Twin Cities Metro

CITY           SKY/WX    TMP DP  RH WIND       PRES   REMARKS
TWIN CITIES    FLURRIES  25  18  74 S15G21    30.21F WCI  13
6HR MIN TEMP:  22; 6HR MAX TEMP:  29; 6HR PCP: TRACE;

ST PAUL        CLOUDY    26  18  71 S7        30.23F WCI  18
CRYSTAL        CLOUDY    26  19  74 S13       30.18F WCI  15
BLAINE         FLURRIES  28  21  74 S12       30.18F WCI  18
LAKEVILLE      FLURRIES  23  19  86 S8        30.21F WCI  14
EDEN PRAIRIE   CLOUDY    26  19  74 S14       30.19F WCI  14
6HR MIN TEMP:  22; 6HR MAX TEMP:  28; 6HR PCP: TRACE;

SOUTH ST PAUL  CLOUDY    26  19  73 S8        30.22F WCI  18
LAKE ELMO      CLOUDY    27  19  74 S12       30.22F WCI  16
$$
MNZ001>005-007-008-013>017-022>024-027-028-060100-
   Northwest Minnesota

CITY           SKY/WX    TMP DP  RH WIND       PRES   REMARKS
BEMIDJI        CLOUDY    24  19  83 W10       30.10R WCI  13
HALLOCK        PTCLDY    18  16  93 S6        30.12S WCI   9
ROSEAU         CLOUDY    21  16  79 SW6       30.09F WCI  14
WARROAD        CLOUDY    21  16  79 SW5       30.09S WCI  15
THIEF RVR FALL CLEAR     18  12  79 W5        30.13S WCI  11
CROOKSTON      CLEAR     19  16  86 CALM      30.15S
FOSSTON        CLEAR     12  10  92 S5        30.12S FOG     WCI   4
DETROIT LAKES  CLOUDY    27  23  86 W7        30.13R WCI  19
MOORHEAD       CLEAR     25  21  86 CALM      30.15S
PARK RAPIDS    CLOUDY    27  20  75 W9        30.10R WCI  18
MAHNOMEN       FAIR      20  18  93 W3        30.12S
$$
MNZ006-009>011-018-025>026-060100-
   North Central Minnesota

CITY           SKY/WX    TMP DP  RH WIND       PRES   REMARKS
BAUDETTE       CLOUDY    22  13  68 W3        30.07S
FLAG ISLAND    CLOUDY    19  16  86 CALM      30.06F
INTL FALLS     CLOUDY    24  15  68 W5        30.07S WCI  18
6HR MIN TEMP:  21; 6HR MAX TEMP:  26;

WASKISH        CLOUDY    18  16  93 SW5       30.09F WCI  11
LONGVILLE      CLOUDY    27  19  74 SW3       30.10S
GRAND RAPIDS   CLOUDY    25  16  68 S5        30.09S WCI  19
CRANE LAKE     CLOUDY    21  14  73 S5        30.09S WCI  15
ORR            CLOUDY    23  12  63 CALM      30.05S
COOK           CLOUDY    25  16  68 SW5       30.08R WCI  19
WALKER         CLOUDY    27  21  79 SW6       30.09R WCI  20
$$
MNZ012-019>021-037-060100-
   Northeast Minnesota

CITY           SKY/WX    TMP DP  RH WIND       PRES   REMARKS
DULUTH         CLOUDY    24  13  62 SW14G21   30.09F WCI  12
6HR MIN TEMP:  19; 6HR MAX TEMP:  26;

ELY            CLOUDY    23  14  68 W3        30.06R
HIBBING        CLOUDY    24  14  65 SW3       30.08R
EVELETH        MOCLDY    27  12  54 SW9       30.08S WCI  17
DULUTH HARBOR  CLOUDY    28  16  59 SW20      30.14F WCI  15
TWO HARBORS    CLOUDY    28  16  59 SW10      30.08F WCI  19
SILVER BAY     CLOUDY    25  16  68 CALM      30.08R
GRAND MARAIS     N/A     26  18  71 SW14      30.12F WCI  14
G MARAIS ARPRT CLOUDY    18  12  79 S3        30.05F
$$
MNZ029>031-032-039>041-046>048-054>057-064-060100-
   West Central Minnesota

CITY           SKY/WX    TMP DP  RH WIND       PRES   REMARKS
FERGUS FALLS   CLOUDY    25  19  80 CALM      30.17R
WHEATON        CLEAR     28  27  93 CALM      30.17F
MORRIS         CLOUDY    28  25  86 W5        30.15R WCI  23
ALEXANDRIA     CLOUDY    24  20  84 SW7       30.12F WCI  16
ELBOW LAKE     CLOUDY    24  22  93 CALM      30.14F FOG
WADENA         CLOUDY    25  19  80 SW5       30.11F WCI  19
GLENWOOD       CLOUDY    25  21  86 SW5       30.14F WCI  19
APPLETON       CLOUDY    30  27  86 NW6       30.16S WCI  24
BENSON         CLOUDY    27  21  80 CALM      30.16S
ORTONVILLE     PTCLDY    28  25  86 CALM      30.16S
MADISON        CLOUDY    28  25  86 CALM      30.17S
WILLMAR        CLOUDY    27  23  86 W6        30.17F WCI  20
$$
MNZ033>034-036-042>043-049>051-058-059-060100-
   Central Minnesota

CITY           SKY/WX    TMP DP  RH WIND       PRES   REMARKS
ST CLOUD       CLOUDY    24  16  71 S6        30.17S WCI  17
6HR MIN TEMP:  22; 6HR MAX TEMP:  26;

SAUK CENTRE    CLOUDY    25  20  81 SW3       30.14F
PAYNESVILLE    CLOUDY    26  21  82 W7        30.16S WCI  18
AITKIN         CLOUDY    28  12  50 S10       30.10S WCI  19
PINE RIVER     CLOUDY    27  18  69 W6        30.14S HAZE    WCI  20
BRAINERD       CLOUDY    25  16  68 S8        30.12F WCI  16
STAPLES        CLOUDY    25  18  74 S6        30.11F WCI  18
LONG PRAIRIE   CLOUDY    25  21  86 S7        30.13F WCI  17
LITTLE FALLS   CLOUDY    25  18  74 S6        30.15F WCI  18
LITCHFIELD     CLOUDY    27  25  93 CALM      30.18R
BUFFALO        CLOUDY    25  20  82 S8        30.21R WCI  16
MAPLE LAKE     CLOUDY    26  21  83 S5        30.19R WCI  20
$$
MNZ037-044-045-052-053-060100-
   East Central Minnesota

CITY           SKY/WX    TMP DP  RH WIND       PRES   REMARKS
PRINCETON      CLOUDY    27  19  74 S7        30.18S WCI  19
MORA           CLOUDY    27  18  69 SW10      30.18F WCI  17
CAMBRIDGE      CLOUDY    28  18  64 S8        30.17S WCI  20
RUSH CITY      CLOUDY    25  16  70 S5        30.19S WCI  19
MOOSE LAKE     CLOUDY    27  14  59 S8        30.12F WCI  18
HINCKLEY       CLOUDY    27  18  69 S7        30.16S WCI  19
CLOQUET        CLOUDY    25  12  58 SW9       30.11S WCI  15
MCGREGOR       CLOUDY    28  18  64 S9        30.11F WCI  20
$$
MNZ071>073-080-081-089-090-097-098-060100-
   Southwest Minnesota

CITY           SKY/WX    TMP DP  RH WIND       PRES   REMARKS
MONTEVIDEO     CLOUDY    27  19  74 CALM      30.19S
GRANITE FALLS  CLOUDY    29  24  83 SW6       30.18F WCI  23
CANBY          CLOUDY    31  27  85 NW5       30.17F WCI  26
MARSHALL       CLOUDY    27  24  89 W8        30.17S WCI  19
REDWOOD FALLS  MOCLDY    27  23  85 SW8       30.18R WCI  19
OLIVIA         CLOUDY    28  23  80 CALM      30.17S
PIPESTONE        N/A     28  21  74 W3        30.15R
WINDOM         LGT SNOW  27  25  93 S9        30.17R WCI  17
WORTHINGTON    CLOUDY    25  21  86 SW15      30.17R WCI  12
JACKSON        CLOUDY    28  23  80 SW12      30.18R FOG     WCI  18
TRACY          CLOUDY    28  25  89 W6        30.17R WCI  22
SLAYTON        CLOUDY    27  27 100 W10       30.17R WCI  17
$$
MNZ065>067-074>077-082>085-091>093-060100-
   South Central Minnesota

CITY           SKY/WX    TMP DP  RH WIND       PRES   REMARKS
MANKATO        CLOUDY    25  19  80 S12       30.21S WCI  14
NEW ULM        CLOUDY    25  21  86 S10       30.18F WCI  15
ST JAMES       CLOUDY    27  25  93 S12       30.20S WCI  16
FAIRMONT       CLOUDY    25  19  80 S18G24    30.18F WCI  11
GLENCOE        CLOUDY    26  24  92 S8        30.18S WCI  17
FARIBAULT      FLURRIES  25  19  80 S6        30.22F WCI  18
OWATONNA       FLURRIES  23  19  86 S12       30.22R WCI  12
WASECA         CLOUDY    23  19  86 S12       30.23R WCI  12
ALBERT LEA     CLOUDY    25  18  74 S9        30.22S WCI  15
$$
MNZ078>079-086>088-094>096-060100-
   Southeast Minnesota

CITY           SKY/WX    TMP DP  RH WIND       PRES   REMARKS
ROCHESTER      CLOUDY    20  14  77 S13       30.23F WCI   7
6HR MIN TEMP:  18; 6HR MAX TEMP:  20;

RED WING       FLURRIES  25  14  63 S7        30.25S WCI  17
STANTON        FLURRIES  25  19  77 S10       30.22S WCI  14
DODGE CENTER   FLURRIES  19  18  93 S13       30.21F WCI   7
WINONA         MOCLDY    27  16  63 S3        30.30R
AUSTIN         CLOUDY    21  18  86 S7        30.23F WCI  13
PRESTON        CLOUDY    19  13  78 S12       30.25F WCI   7
$$
ABBREVIATIONS USED IN REMARKS
   TC - TEMPERATURES IN CELSIUS
  WCI - WIND CHILL INDEX
   HX - HEAT INDEX
  VSB - VISIBILITY
$$



USA.gov is the U.S. government's official web portal to all federal, state and local government web resources and services.